Sussex, NJ

4:25 AM EST on February 25, 2017 (GMT -0500)
Sussex

Weather History for KFWN - January, 2013

Change the Weather History Date:

Sunday, January 6, 2013

  Actual Average Record
Temperature  
Mean Temperature 34 °F -  
Max Temperature 42 °F 34 °F 68 °F (2007)
Min Temperature 26 °F 13 °F -12 °F (1970)
Degree Days  
Heating Degree Days 31    
Moisture  
Dew Point 23 °F    
Average Humidity 71    
Maximum Humidity 85    
Minimum Humidity 51    
Precipitation  
Precipitation 0.00 in - - ()
Sea Level Pressure  
Sea Level Pressure 30.05 in    
Wind  
Wind Speed 2 mph (SSW)    
Max Wind Speed 8 mph    
Max Gust Speed -    
Visibility 8 miles    
Events      
Averages and records for this station are not official NWS values.
T = Trace of Precipitation, MM = Missing Value Source: NWS Daily Summary

Daily Weather History Graph

Daily Weather History Graph

Search for Another Location

Airport or City:

Trip Planner

Search our weather history database for the weather conditions in past years. The results will help you decide how hot, cold, wet, or windy it might be!

Date:

Astronomy

Jan. 06, 2013 Rise Set
Actual Time 7:24 AM EST 4:45 PM EST
Civil Twilight 6:53 AM EST 5:16 PM EST
Nautical Twilight 6:18 AM EST 5:50 PM EST
Astronomical Twilight 5:45 AM EST 6:23 PM EST
Moon 1:34 AM EST (1/6) 12:11 PM EST (1/6)
Length of Visible Light 10h 22m
Length of Day
9h 21m
Waning Crescent, 33% of the Moon is Illuminated
Jan 6
Waning Crescent
Jan 11
New
Jan 18
First Quarter
Jan 26
Full
Feb 3
Last Quarter

Hourly Weather History & Observations

Time (EST) Temp. Windchill Dew Point Humidity Pressure Visibility Wind Dir Wind Speed Gust Speed Precip Events Conditions
12:53 AM 26.1 °F - 19.9 °F 78% 30.19 in 10.0 mi Calm Calm - N/A   Overcast
1:53 AM 27.0 °F - 21.0 °F 78% 30.17 in 8.0 mi Calm Calm - N/A   Overcast
2:53 AM 27.0 °F 23.0 °F 21.9 °F 81% 30.16 in 8.0 mi South 3.5 mph - N/A   Overcast
3:53 AM 28.9 °F - 21.9 °F 75% 30.13 in 7.0 mi Calm Calm - N/A   Overcast
4:53 AM 28.9 °F - 21.9 °F 75% 30.10 in 7.0 mi Calm Calm - N/A   Overcast
5:32 AM 28.4 °F - 21.2 °F 74% 30.07 in 7.0 mi Calm Calm - N/A   Overcast
5:53 AM 28.9 °F - 21.9 °F 75% 30.10 in 7.0 mi Calm Calm - N/A   Overcast
6:42 AM 28.4 °F - 21.2 °F 74% 30.08 in 7.0 mi Calm Calm - N/A   Overcast
6:53 AM 28.9 °F - 21.9 °F 75% 30.09 in 6.0 mi Calm Calm - N/A   Haze
7:53 AM 28.0 °F - 21.0 °F 75% 30.09 in 5.0 mi Calm Calm - N/A   Haze
8:53 AM 28.9 °F 25.2 °F 21.9 °F 75% 30.09 in 5.0 mi SSW 3.5 mph - N/A   Haze
9:53 AM 33.1 °F 26.1 °F 26.1 °F 75% 30.09 in 5.0 mi SW 8.1 mph - N/A   Haze
11:53 AM 37.0 °F 31.6 °F 26.1 °F 65% 30.02 in 6.0 mi SSW 6.9 mph - N/A   Haze
12:53 PM 39.9 °F 35.1 °F 26.1 °F 58% 29.99 in 8.0 mi SSW 6.9 mph - N/A   Clear
1:53 PM 42.1 °F 39.2 °F 25.0 °F 51% 29.96 in 10.0 mi Variable 4.6 mph - N/A   Clear
2:53 PM 42.1 °F 37.7 °F 25.0 °F 51% 29.96 in 10.0 mi SSW 6.9 mph - N/A   Clear
3:53 PM 41.0 °F 36.4 °F 25.0 °F 53% 29.96 in 10.0 mi SSW 6.9 mph - N/A   Mostly Cloudy
4:53 PM 39.0 °F 35.7 °F 25.0 °F 57% 29.98 in 10.0 mi SW 4.6 mph - N/A   Partly Cloudy
5:53 PM 37.0 °F 33.3 °F 25.0 °F 62% 29.99 in 10.0 mi SW 4.6 mph - N/A   Mostly Cloudy
6:53 PM 35.1 °F - 25.0 °F 67% 30.01 in 9.0 mi Calm Calm - N/A   Mostly Cloudy
7:53 PM 35.1 °F 32.2 °F 25.0 °F 67% 30.01 in 10.0 mi SSW 3.5 mph - N/A   Overcast
8:53 PM 30.9 °F - 25.0 °F 79% 30.01 in 8.0 mi Calm Calm - N/A   Clear
9:53 PM 28.9 °F - 24.1 °F 82% 30.02 in 7.0 mi Calm Calm - N/A   Mostly Cloudy
10:53 PM 27.0 °F - 23.0 °F 85% 30.03 in 6.0 mi Calm Calm - N/A   Clear
11:53 PM 27.0 °F - 23.0 °F 85% 30.05 in 6.0 mi Calm Calm - N/A   Clear